CET,Max TemperatureF,Mean TemperatureF,Min TemperatureF,Max Dew PointF,MeanDew PointF,Min DewpointF,Max Humidity, Mean Humidity, Min Humidity, Max Sea Level PressureIn, Mean Sea Level PressureIn, Min Sea Level PressureIn, Max VisibilityMiles, Mean VisibilityMiles, Min VisibilityMiles, Max Wind SpeedMPH, Mean Wind SpeedMPH, Max Gust SpeedMPH,PrecipitationIn, CloudCover, Events, WindDirDegrees
2013-2-1,54,48,41,54,45,37,100,91,78,30.09,29.72,29.53,6,5,1,14,8,,0.31,7,Rain,250
2013-2-2,45,40,33,41,35,27,93,75,55,30.30,29.98,29.65,10,6,6,21,13,31,0.04,5,Rain,337
2013-2-3,50,39,28,46,36,27,93,85,59,30.37,30.28,30.18,6,6,6,10,4,,0.01,7,Rain,224
2013-2-4,55,50,46,50,45,37,100,83,58,30.20,30.17,30.12,11,6,4,18,9,,0.01,8,Rain,269
2013-2-5,46,42,37,41,36,32,93,78,66,30.13,29.88,29.71,12,6,6,23,14,36,0.16,6,Rain,259
2013-2-6,45,40,35,39,36,28,93,81,53,30.09,29.81,29.65,12,6,3,26,15,37,0.20,6,Rain,326
2013-2-7,44,38,32,37,32,27,93,74,58,30.22,30.14,30.01,6,6,6,14,8,,0.04,7,Rain,292
2013-2-8,45,40,35,37,34,30,100,82,52,30.21,30.10,29.98,6,6,3,15,6,,0.03,7,Rain,358
2013-2-9,45,40,35,43,39,34,100,91,81,30.24,30.13,29.95,18,6,3,8,4,,0.16,7,Rain,265
2013-2-10,52,46,40,48,43,37,100,94,87,29.95,29.54,29.30,12,5,1,17,6,,0.35,7,Fog-Rain,183
2013-2-11,50,42,33,37,35,32,93,81,58,29.68,29.47,29.36,11,6,6,12,7,,0.00,5,,255
2013-2-12,42,38,33,39,37,34,100,91,81,30.06,29.91,29.71,6,4,2,7,5,,0.04,7,Rain,310
2013-2-13,42,39,36,39,35,28,100,83,58,30.22,30.14,30.06,5,3,1,9,5,,0.01,8,Rain,127
2013-2-14,56,48,39,50,42,37,100,86,54,30.16,30.04,29.98,6,4,0,20,9,,0.04,6,Fog-Rain,249
2013-2-15,53,43,33,43,39,32,100,83,62,30.24,30.17,30.09,11,5,0,7,4,,0.00,6,Fog,286
2013-2-16,52,44,35,43,39,35,100,92,71,30.25,30.20,30.15,11,4,0,9,3,,0.00,6,Fog,109
2013-2-17,46,41,36,37,35,34,93,82,66,30.17,30.04,29.95,16,6,3,14,9,,0.00,7,,100
2013-2-18,50,42,33,39,33,30,93,76,53,30.04,29.99,29.92,11,6,4,12,9,,0.00,2,,106
2013-2-19,53,40,28,39,33,25,93,76,54,30.06,30.02,29.98,10,5,2,9,5,,0.00,,,97
2013-2-20,50,38,27,36,31,27,100,76,50,30.06,30.03,30.01,6,4,1,13,5,,0.00,,,82
2013-2-21,41,35,29,30,24,19,81,64,41,30.08,30.02,29.98,12,6,6,18,12,,0.00,1,,78
2013-2-22,37,32,28,21,19,18,74,58,41,29.98,29.95,29.92,12,7,6,18,13,26,0.00,6,,57
2013-2-23,37,30,23,27,22,18,80,69,47,30.12,30.04,29.98,6,5,4,16,9,,0.00,7,Rain-Snow,3
2013-2-24,41,36,32,30,27,25,87,69,51,30.24,30.17,30.12,6,6,4,18,9,,0.00,7,,357
2013-2-25,43,38,33,37,32,25,93,75,57,30.28,30.24,30.21,12,6,4,18,10,,0.00,8,Rain-Snow,355
2013-2-26,40,36,33,36,32,28,87,78,58,30.42,30.31,30.21,12,6,4,16,12,,0.00,8,Rain,35
2013-2-27,42,38,34,37,34,30,87,81,72,30.44,30.38,30.33,5,3,2,12,8,,0.00,8,,30
2013-2-28,40,38,37,34,33,32,87,82,70,30.35,30.27,30.24,9,5,3,12,8,,0.00,8,,45